Location: Unspecified
(31.4656°N, 0.0000°E)
Time: 10:33:04
(UTC+00:00)

Oscar 11 - Visible Passes

Search period start: 04 April 2026 00:00
Search period end: 14 April 2026 00:00
Orbit: 590 x 603 km, 97.8° (Epoch: 29 March)

Date Brightness Start Highest point End Pass type
(mag) Time Alt. Az. Time Alt. Az. Time Alt. Az.
4 Apr 8.5 03:22:52 10° NNE 03:25:08 31° NNE 03:25:08 31° NNE visible
5 Apr 8.2 03:32:44 10° N 03:35:15 36° N 03:35:15 36° N visible
6 Apr 8.0 03:42:39 10° N 03:45:22 37° NNW 03:45:22 37° NNW visible
7 Apr 7.9 03:52:38 10° N 03:55:29 34° NW 03:55:29 34° NW visible
8 Apr 10.1 02:28:18 10° ENE 02:28:55 12° ENE 02:28:55 12° ENE visible
8 Apr 8.1 04:02:41 10° N 04:05:35 29° NW 04:05:35 29° NW visible
9 Apr 9.7 02:37:34 10° NE 02:39:01 16° ENE 02:39:01 16° ENE visible
9 Apr 8.3 04:12:48 10° NNW 04:15:42 24° WNW 04:15:42 24° WNW visible
10 Apr 9.3 02:47:02 10° NE 02:49:07 21° ENE 02:49:07 21° ENE visible
10 Apr 8.5 04:23:02 10° NNW 04:25:47 19° WNW 04:25:47 19° WNW visible
11 Apr 8.9 02:56:36 10° NNE 02:59:13 28° ENE 02:59:13 28° ENE visible
11 Apr 8.8 04:33:27 10° NW 04:35:44 14° WNW 04:35:53 14° WNW visible
12 Apr 8.3 03:06:15 10° NNE 03:09:18 38° ENE 03:09:18 38° ENE visible
12 Apr 9.0 04:44:21 10° NW 04:45:29 11° WNW 04:45:58 11° WNW visible
13 Apr 7.7 03:16:00 10° NNE 03:19:23 51° NE 03:19:23 51° NE visible
